El Dorado, AR

1:55 AM CDT on April 22, 2018 (GMT -0500)
South Arkansas Regional At Goodwin

Weather History for KELD - January, 2014

Change the Weather History Date:

Wednesday, January 29, 2014

  Actual Average Record
Temperature  
Mean Temperature 26 °F 45 °F  
Max Temperature 41 °F 56 °F 79 °F (1975)
Min Temperature 11 °F 34 °F 11 °F (1966)
Degree Days  
Heating Degree Days 39 20  
Month to date heating degree days 751 616  
Since 1 July heating degree days 1975 1703  
Cooling Degree Days 0 0  
Month to date cooling degree days 0 0  
Year to date cooling degree days 0 0  
Moisture  
Dew Point 9 °F    
Average Humidity 55    
Maximum Humidity 84    
Minimum Humidity 25    
Precipitation  
Precipitation 0.00 in 0.15 in 2.55 in (1999)
Month to date precipitation 1.16 3.99  
Year to date precipitation 1.16 3.99  
Snow  
Snow 0.00 in - - ()
Month to date snowfall 0.0  
Since 1 July snowfall T  
Snow Depth 0.00 in    
Sea Level Pressure  
Sea Level Pressure 30.42 in    
Wind  
Wind Speed 3 mph (SSE)    
Max Wind Speed 10 mph    
Max Gust Speed 14 mph    
Visibility 10 miles    
Events      
T = Trace of Precipitation, MM = Missing Value Source: NWS Daily Summary

Daily Weather History Graph

Daily Weather History Graph

Search for Another Location

Airport or City:

Astronomy

Jan. 29, 2014 Rise Set
Actual Time 7:08 AM CST 5:40 PM CST
Civil Twilight 6:42 AM CST 6:06 PM CST
Nautical Twilight 6:12 AM CST 6:36 PM CST
Astronomical Twilight 5:43 AM CST 7:05 PM CST
Moon 5:45 AM CST (1/29) 4:40 PM CST (1/29)
Length of Visible Light 11h 23m
Length of Day
10h 31m
Waning Crescent, 2% of the Moon is Illuminated
Jan 29
Waning Crescent
Jan 30
New
Feb 6
First Quarter
Feb 14
Full
Feb 22
Last Quarter

Hourly Weather History & Observations

Time (CST) Temp. Windchill Dew Point Humidity Pressure Visibility Wind Dir Wind Speed Gust Speed Precip Events Conditions
12:53 AM 16.0 °F - 10.9 °F 81% 30.45 in 10.0 mi Calm Calm - N/A   Clear
1:53 AM 15.1 °F - 10.0 °F 80% 30.45 in 10.0 mi Calm Calm - N/A   Clear
2:53 AM 15.1 °F - 10.0 °F 80% 30.45 in 10.0 mi Calm Calm - N/A   Clear
3:53 AM 12.9 °F - 9.0 °F 84% 30.45 in 10.0 mi Calm Calm - N/A   Clear
4:53 AM 12.9 °F - 9.0 °F 84% 30.45 in 10.0 mi Calm Calm - N/A   Clear
5:53 AM 12.9 °F - 8.1 °F 81% 30.46 in 10.0 mi Calm Calm - N/A   Clear
6:53 AM 12.0 °F - 8.1 °F 84% 30.47 in 10.0 mi Calm Calm - N/A   Clear
7:53 AM 12.9 °F - 9.0 °F 84% 30.48 in 10.0 mi Calm Calm - N/A   Clear
8:53 AM 19.0 °F 10.0 °F 10.9 °F 71% 30.49 in 10.0 mi South 6.9 mph - N/A   Clear
9:53 AM 25.0 °F 19.3 °F 10.9 °F 55% 30.50 in 10.0 mi SSE 4.6 mph - N/A   Clear
10:53 AM 30.0 °F - 9.0 °F 41% 30.49 in 10.0 mi Calm Calm - N/A   Clear
11:53 AM 34.0 °F 31.0 °F 5.0 °F 30% 30.48 in 10.0 mi Variable 3.5 mph - N/A   Clear
12:53 PM 36.0 °F 32.1 °F 6.1 °F 29% 30.45 in 10.0 mi South 4.6 mph - N/A   Clear
1:53 PM 37.9 °F 32.7 °F 7.0 °F 28% 30.41 in 10.0 mi SSW 6.9 mph - N/A   Clear
2:53 PM 39.9 °F - 8.1 °F 27% 30.39 in 10.0 mi Calm Calm - N/A   Clear
3:53 PM 39.9 °F 35.8 °F 7.0 °F 26% 30.36 in 10.0 mi NW 5.8 mph - N/A   Clear
4:53 PM 39.0 °F - 7.0 °F 27% 30.36 in 10.0 mi Calm Calm - N/A   Clear
5:53 PM 34.0 °F 31.0 °F 8.1 °F 34% 30.35 in 10.0 mi SE 3.5 mph - N/A   Clear
6:53 PM 28.9 °F 23.9 °F 10.9 °F 47% 30.35 in 10.0 mi SSE 4.6 mph - N/A   Clear
7:53 PM 27.0 °F 23.0 °F 10.9 °F 51% 30.34 in 10.0 mi SSE 3.5 mph - N/A   Clear
8:53 PM 28.0 °F 21.7 °F 9.0 °F 45% 30.34 in 10.0 mi SSE 5.8 mph - N/A   Clear
9:53 PM 27.0 °F 19.5 °F 8.1 °F 45% 30.34 in 10.0 mi SSE 6.9 mph - N/A   Clear
10:53 PM 27.0 °F 19.5 °F 8.1 °F 45% 30.33 in 10.0 mi SSE 6.9 mph - N/A   Clear
11:53 PM 25.0 °F 18.1 °F 8.1 °F 49% 30.32 in 10.0 mi South 5.8 mph - N/A   Clear